Weather in Borysivka

Ukraine / Zaporizhia Region     46°47′07″N   36°24′32″E
temp.,
°C
wind,
m/s
gust,
m/s
humid.,
%
clouds,
%
prec.,
mm/h
press.,
hPa
HPBL,
m
4 july, mon
mon400:00+21nne4552100 0.0 101690
03:00+20nne445539 0.0 101674
06:00+20n445637 0.0 101795
09:00+26n22484 0.0 1016697
12:00+27s564456 0.0 10161207
15:00+26ssw665178 0.0 1015465
18:00+26sw67534 0.0 1015363
21:00+24w476128 0.0 1015148
5 july, tue
tue500:00+23nw475196 0.0 1015131
03:00+24n465567 0.0 1015101
06:00+23nne465925 0.0 1015118
09:00+27e564740 0.0 1015592
12:00+28ese665013 0.0 10151534
15:00+28sse565159 0.0 1014632
18:00+27ese015399 0.0 1014172
21:00+26n335048 0.0 101418
6 july, wed
wed600:00+25ne355172 0.0 101567
03:00+24ene595642 0.0 1015194
06:00+23e47630 0.0 1015163
09:00+26ese674325 0.0 1015605
12:00+27ese77410 0.0 10161083
15:00+29e78360 0.0 10141376
18:00+29ese57350 0.0 10131199
21:00+25ene34440 0.0 101331
7 july, thu
thu700:00+25e812500 0.0 1013325
03:00+22ene510640 0.0 1013187
06:00+21ene611650 0.0 1013324
09:00+26e811430 0.0 10131013
12:00+28e911350 0.0 10121099
15:00+29e810340 0.0 10111227
18:00+29e79370 0.0 10101073
21:00+25ene58460 0.0 1010114
8 july, fri
fri800:00+23ene511600 0.0 1010172
03:00+23e611570 0.0 1010255
06:00+22ene712620 0.0 1011440
09:00+25e910482 0.0 1011875
12:00+26e8943100 0.0 10101024
15:00+27ese574794 0.0 1009779
18:00+27sse34480 0.0 1008387
21:00+23ssw11620 0.0 100811